EW5209 Weather Reports


Display with metric or nautical units.
time (UTC)temp
F
wind
direction
speed
MPH
gust
MPH
rain 1hr
in
rain 24hr
in
rain mn
in
humidity
%
barometer
mb
20260506204033 59 316 4.0 11.0 0.00 0.00 0.00 84 1013.2
20260506203533 59 37 4.0 11.0 0.00 0.00 0.00 84 1013.3
20260506203031 59 330 5.0 12.0 0.00 0.00 0.00 84 1013.5
20260506202532 58 290 6.0 13.0 0.00 0.00 0.00 84 1013.3
20260506202035 58 102 5.0 12.0 0.00 0.00 0.00 84 1013.5
20260506202030 58 343 5.0 13.0 0.00 0.00 0.00 84 1013.5
20260506201030 58 345 5.0 12.0 0.00 0.00 0.00 84 1013.7
20260506200530 58 315 6.0 12.0 0.00 0.00 0.00 84 1013.8
20260506200030 58 326 6.0 13.0 0.00 0.00 0.00 84 1013.7
20260506195529 59 353 6.0 13.0 0.00 0.00 0.00 83 1013.7
20260506195030 59 309 6.0 13.0 0.00 0.00 0.00 83 1013.5
20260506194531 59 320 6.0 13.0 0.00 0.00 0.00 83 1013.6
20260506194029 59 326 5.0 11.0 0.00 0.00 0.00 83 1013.4
20260506193535 60 258 5.0 9.0 0.00 0.00 0.00 82 1013.7
20260506193530 59 294 5.0 9.0 0.00 0.00 0.00 83 1013.7
20260506192533 60 300 4.0 9.0 0.00 0.00 0.00 82 1013.6
20260506192528 60 327 5.0 9.0 0.00 0.00 0.00 82 1013.5
20260506191529 60 23 4.0 9.0 0.00 0.00 0.00 83 1013.6
20260506191028 60 323 4.0 9.0 0.00 0.00 0.00 82 1013.6
20260506190533 60 333 3.0 9.0 0.00 0.00 0.00 82 1013.9
20260506190033 60 297 5.0 10.0 0.00 0.00 0.00 83 1013.6
20260506190029 60 340 4.0 10.0 0.00 0.00 0.00 83 1013.8
20260506185027 60 319 4.0 10.0 0.00 0.00 0.00 82 1013.6
20260506184528 60 259 5.0 11.0 0.00 0.00 0.00 83 1013.4
20260506184026 60 285 4.0 11.0 0.00 0.00 0.00 83 1013.1
20260506183526 60 39 3.0 11.0 0.00 0.00 0.00 83 1012.8
20260506183027 59 352 3.0 10.0 0.00 0.00 0.00 83 1012.7
20260506182526 59 333 3.0 10.0 0.00 0.00 0.00 83 1012.8
20260506182028 58 334 3.0 10.0 0.00 0.00 0.00 83 1012.9
20260506181527 58 316 2.0 8.0 0.00 0.00 0.00 83 1013.5
20260506181027 58 33 2.0 6.0 0.00 0.00 0.00 83 1013.4
20260506180524 58 354 1.0 4.0 0.00 0.00 0.00 83 1013.5
20260506180022 59 328 1.0 4.0 0.00 0.00 0.00 83 1013.5
20260506175527 59 44 0.0 9.0 0.00 0.00 0.00 83 1013.4
20260506175522 59 85 0.0 4.0 0.00 0.00 0.00 83 1013.0
20260506174522 59 320 1.0 9.0 0.00 0.00 0.00 83 1013.2
20260506174023 59 54 2.0 9.0 0.00 0.00 0.00 83 1012.7
20260506173523 59 80 3.0 11.0 0.00 0.00 0.00 84 1011.7
20260506173021 58 303 3.0 11.0 0.00 0.00 0.00 84 1011.2
20260506172522 58 254 2.0 11.0 0.00 0.00 0.00 84 1011.7
20260506172027 58 52 2.0 7.0 0.00 0.00 0.00 84 1012.5
20260506172022 58 351 2.0 11.0 0.00 0.00 0.00 84 1012.1
20260506171025 58 13 2.0 7.0 0.00 0.00 0.00 85 1013.6
20260506171019 58 86 2.0 7.0 0.00 0.00 0.00 85 1013.1
20260506170020 57 238 1.0 7.0 0.00 0.00 0.00 85 1013.9
20260506165521 57 205 1.0 6.0 0.00 0.00 0.00 85 1013.9
20260506165022 57 322 1.0 6.0 0.00 0.00 0.00 85 1014.0
20260506164521 57 355 2.0 6.0 0.00 0.00 0.00 85 1014.7
20260506164019 57 80 2.0 8.0 0.00 0.00 0.00 85 1014.2
20260506163520 57 85 2.0 8.0 0.00 0.00 0.00 85 1013.5
20260506163140 56 93 1.0 6.0 0.00 0.00 0.00 84 1013.1
20260506163020 57 46 2.0 9.0 0.00 0.00 0.00 85 1013.1
20260506162518 57 49 2.0 9.0 0.00 0.00 0.00 85 1013.4
20260506162023 56 29 1.0 9.0 0.00 0.00 0.00 85 1013.4
20260506162019 56 278 2.0 9.0 0.00 0.00 0.00 85 1013.5
20260506160518 56 337 0.0 6.0 0.00 0.00 0.00 85 1014.1
20260506160024 56 50 1.0 10.0 0.00 0.00 0.00 85 1014.2
20260506160018 56 2 0.0 4.0 0.00 0.00 0.00 85 1014.3
20260506155018 56 12 2.0 10.0 0.00 0.00 0.00 85 1013.9
20260506154517 56 345 3.0 10.0 0.00 0.00 0.00 85 1013.9
20260506154018 56 18 3.0 13.0 0.00 0.00 0.00 85 1013.9
20260506153518 56 20 3.0 13.0 0.00 0.00 0.00 85 1014.9
20260506153018 56 329 5.0 13.0 0.00 0.00 0.00 85 1014.7
20260506152523 56 309 6.0 15.0 0.00 0.00 0.00 84 1015.0
20260506152518 56 338 6.0 15.0 0.00 0.00 0.00 84 1014.6
20260506152139 56 328 7.0 15.0 0.00 0.00 0.00 84 1014.8
20260506151017 56 326 6.0 15.0 0.00 0.00 0.00 84 1014.9
20260506150517 56 316 4.0 13.0 0.00 0.00 0.00 84 1015.0
20260506150019 56 318 4.0 17.0 0.00 0.00 0.00 84 1014.3
20260506145518 56 330 5.0 17.0 0.00 0.00 0.00 84 1014.0
20260506145023 57 349 5.0 17.0 0.00 0.00 0.00 83 1013.7
20260506145019 56 304 6.0 17.0 0.00 0.00 0.00 84 1013.8
20260506144019 57 299 4.0 13.0 0.00 0.00 0.00 83 1013.5
20260506143518 57 356 5.0 13.0 0.00 0.00 0.00 83 1013.4
20260506143017 57 333 4.0 11.0 0.00 0.00 0.00 82 1013.7
20260506142517 57 332 2.0 9.0 0.00 0.00 0.00 82 1013.5
20260506142018 57 64 2.0 8.0 0.00 0.00 0.00 83 1013.0
20260506141518 57 336 2.0 8.0 0.00 0.00 0.00 82 1013.2
20260506141019 58 56 1.0 7.0 0.00 0.00 0.00 82 1013.1
20260506140523 58 1 3.0 10.0 0.00 0.00 0.00 82 1013.0
20260506140518 58 307 2.0 10.0 0.00 0.00 0.00 82 1013.0
20260506135518 58 307 3.0 10.0 0.00 0.00 0.00 81 1012.7
20260506135019 58 308 2.0 10.0 0.00 0.00 0.00 81 1012.7
20260506134523 58 36 3.0 9.0 0.00 0.00 0.00 81 1012.6
20260506134518 58 0 1.0 9.0 0.00 0.00 0.00 81 1012.8
20260506133519 58 221 3.0 12.0 0.00 0.00 0.00 80 1012.6
20260506133018 58 337 2.0 12.0 0.00 0.00 0.00 80 1012.3
20260506132523 58 301 4.0 12.0 0.00 0.00 0.00 80 1012.1
20260506132518 58 37 3.0 12.0 0.00 0.00 0.00 80 1012.3
20260506131517 58 299 3.0 10.0 0.00 0.00 0.00 80 1012.2
20260506131018 58 335 3.0 10.0 0.00 0.00 0.00 80 1012.2
20260506130518 58 344 2.0 13.0 0.00 0.00 0.00 80 1012.2
20260506130018 58 316 3.0 13.0 0.00 0.00 0.00 80 1012.2
20260506125518 58 302 0.0 11.0 0.00 0.00 0.00 80 1012.1
20260506125024 0 0.0 0.0 0.00 0.00 0.00 1011.8
20260506125017 58 345 0.0 7.0 0.00 0.00 0.00 80 1012.0
20260506124015 0 0.0 0.0 0.00 0.00 0.00 1011.9
20260506123515 0 0.0 0.0 0.00 0.00 0.00 1011.7
20260506122921 0 0.0 0.0 0.00 0.00 0.00 1011.6
20260506122422 0 0.0 0.0 0.00 0.00 0.00 1011.6
20260506121917 0 0.0 0.0 0.00 0.00 0.00 1011.6
20260506121412 0 0.0 0.0 0.00 0.00 0.00 1011.5
20260506120818 0 0.0 0.0 0.00 0.00 0.00 1011.5
20260506120320 0 0.0 0.0 0.00 0.00 0.00 1011.5
20260506115815 0 0.0 0.0 0.00 0.00 0.00 1011.4
20260506115310 0 0.0 0.0 0.00 0.00 0.00 1011.2
20260506114717 0 0.0 0.0 0.00 0.00 0.00 1011.1
20260506114221 0 0.0 0.0 0.00 0.00 0.00 1010.8
20260506114215 0 0.0 0.0 0.00 0.00 0.00 1011.0
20260506113205 0 0.0 0.0 0.00 0.00 0.00 1010.6
20260506112618 0 0.0 0.0 0.00 0.00 0.00 1010.7
20260506112122 0 0.0 0.0 0.00 0.00 0.00 1010.5
20260506112118 0 0.0 0.0 0.00 0.00 0.00 1010.6
20260506111119 0 0.0 0.0 0.00 0.00 0.00 1010.5
20260506111114 0 0.0 0.0 0.00 0.00 0.00 1010.4
20260506110018 0 0.0 0.0 0.00 0.00 0.00 1010.4
20260506105514 0 0.0 0.0 0.00 0.00 0.00 1010.1
20260506105015 0 0.0 0.0 0.00 0.00 0.00 1010.1
20260506104510 0 0.0 0.0 0.00 0.00 0.00 1010.0
20260506104006 0 0.0 0.0 0.00 0.00 0.00 1009.9
20260506103414 0 356 0.0 0.0 0.00 0.00 0.00 1009.8
20260506102842 0 356 0.0 3.0 0.00 0.00 0.00 1009.7
20260506102346 61 349 0.0 5.0 0.00 0.00 0.00 80 1009.5
20260506102340 61 356 0.0 3.0 0.00 0.00 0.00 80 1009.7
20260506102006 61 33 1.0 6.0 0.00 0.00 0.00 79 1009.6
20260506102000 61 347 0.0 5.0 0.00 0.00 0.00 80 1009.6
20260506100842 61 0 0.0 6.0 0.00 0.00 0.00 80 1009.6
20260506095847 61 340 1.0 6.0 0.00 0.00 0.00 79 1009.5
20260506095841 61 82 1.0 6.0 0.00 0.00 0.00 80 1009.6
20260506094842 61 26 2.0 9.0 0.00 0.00 0.00 79 1009.3
20260506094340 61 4 3.0 9.0 0.00 0.00 0.00 79 1009.3
20260506093839 62 41 3.0 9.0 0.00 0.00 0.00 80 1009.4
20260506093340 62 17 2.0 9.0 0.00 0.00 0.00 80 1009.3
20260506092837 62 28 1.0 8.0 0.00 0.00 0.00 80 1009.3
20260506092338 62 326 2.0 8.0 0.00 0.00 0.00 80 1009.3
20260506091837 62 338 2.0 8.0 0.00 0.00 0.00 80 1009.2
20260506091338 63 317 3.0 8.0 0.00 0.00 0.00 80 1009.0
20260506090844 63 320 1.0 5.0 0.00 0.00 0.00 80 1008.8
20260506090835 63 24 2.0 7.0 0.00 0.00 0.00 80 1009.0
20260506090336 63 327 1.0 7.0 0.00 0.00 0.00 80 1008.9
20260506085340 63 342 0.0 4.0 0.00 0.00 0.00 81 1008.8
20260506085333 63 27 0.0 5.0 0.00 0.00 0.00 81 1008.7
20260506084833 63 323 0.0 4.0 0.00 0.00 0.00 81 1008.8
20260506083838 64 60 0.0 4.0 0.00 0.00 0.00 81 1008.7
20260506083834 64 40 0.0 4.0 0.00 0.00 0.00 81 1008.8
20260506082833 64 45 1.0 8.0 0.00 0.00 0.00 81 1008.5
20260506082338 64 58 1.0 8.0 0.00 0.00 0.00 80 1008.5
20260506082334 64 49 1.0 8.0 0.00 0.00 0.00 81 1008.6
20260506081335 64 89 1.0 8.0 0.00 0.00 0.00 80 1008.6
20260506080833 65 27 1.0 6.0 0.00 0.00 0.00 80 1008.6
20260506080332 65 83 1.0 6.0 0.00 0.00 0.00 80 1008.6
20260506073332 66 30 1.0 4.0 0.00 0.00 0.00 79 1008.7
20260506072832 66 35 1.0 6.0 0.00 0.00 0.00 79 1008.7
20260506072332 66 64 1.0 6.0 0.00 0.00 0.00 79 1008.7
20260506071829 66 354 1.0 7.0 0.00 0.00 0.00 79 1008.7
20260506071328 67 34 1.0 7.0 0.00 0.00 0.00 79 1008.8
20260506070829 67 40 1.0 7.0 0.00 0.00 0.00 79 1008.8
20260506070333 67 338 1.0 7.0 0.00 0.00 0.00 79 1008.7
20260506070328 67 30 1.0 7.0 0.00 0.00 0.00 79 1008.7
20260506062332 70 43 1.0 8.0 0.00 0.00 0.00 78 1008.6
20260506062327 69 62 1.0 8.0 0.00 0.00 0.00 78 1008.5
20260506061329 70 277 1.0 5.0 0.00 0.00 0.00 77 1008.4
20260506060827 70 357 1.0 5.0 0.00 0.00 0.00 77 1008.6
20260506060327 71 62 1.0 5.0 0.00 0.00 0.00 77 1008.4
20260506051325 74 71 1.0 7.0 0.00 0.00 0.00 76 1008.2
20260506050827 74 1 2.0 7.0 0.00 0.00 0.00 75 1008.0
20260506050823 74 46 2.0 7.0 0.00 0.00 0.00 75 1008.0
20260506044827 75 315 3.0 6.0 0.00 0.00 0.00 74 1007.9
20260506044823 74 347 3.0 7.0 0.00 0.00 0.00 74 1007.9
20260506043821 75 324 3.0 6.0 0.00 0.00 0.00 73 1007.9
20260506043327 75 330 4.0 7.0 0.00 0.00 0.00 73 1007.8
20260506043321 75 311 4.0 7.0 0.00 0.00 0.00 73 1007.8
20260506042321 75 332 2.0 7.0 0.00 0.00 0.00 73 1007.7
20260506041825 75 357 1.0 7.0 0.00 0.00 0.00 73 1007.6
20260506041819 75 317 1.0 7.0 0.00 0.00 0.00 73 1007.8
20260506040819 75 74 2.0 7.0 0.00 0.00 0.00 74 1007.5
20260506040320 76 8 3.0 7.0 0.00 0.00 0.00 74 1007.4
20260506035824 76 317 3.0 9.0 0.00 0.00 0.00 74 1007.5
20260506035820 76 309 3.0 7.0 0.00 0.00 0.00 74 1007.4
20260506034824 76 319 4.0 9.0 0.00 0.00 0.00 73 1007.2
20260506034819 76 321 3.0 9.0 0.00 0.00 0.00 74 1007.4
20260506034439 78 6 2.0 6.0 0.00 0.00 0.00 82 1007.4
20260506033819 77 345 3.0 9.0 0.00 0.00 0.00 75 1007.4
20260506032818 78 319 2.0 3.0 0.00 0.00 0.00 82 1007.3
20260506032317 78 282 1.0 3.0 0.00 0.00 0.00 81 1007.0
20260506031817 78 319 0.0 3.0 0.00 0.00 0.00 81 1006.9
20260506031317 78 289 0.0 2.0 0.00 0.00 0.00 82 1006.9
20260506030818 78 301 1.0 2.0 0.00 0.00 0.00 81 1006.7
20260506030318 78 299 1.0 2.0 0.00 0.00 0.00 81 1006.4
20260506025818 78 294 0.0 2.0 0.00 0.00 0.00 82 1006.3
20260506025322 78 213 0.0 0.0 0.00 0.00 0.00 81 1006.0
20260506025317 78 213 0.0 0.0 0.00 0.00 0.00 82 1006.2
20260506024318 78 213 0.0 0.0 0.00 0.00 0.00 81 1005.9
20260506023820 78 213 0.0 0.0 0.00 0.00 0.00 81 1005.4
20260506023816 78 213 0.0 0.0 0.00 0.00 0.00 81 1005.9
20260506023433 78 220 0.0 0.0 0.00 0.00 0.00 81 1005.3
20260506022316 78 220 0.0 0.0 0.00 0.00 0.00 81 1005.4
20260506021822 79 141 0.0 3.0 0.00 0.00 0.00 80 1005.1
20260506021815 78 157 0.0 2.0 0.00 0.00 0.00 80 1005.2
20260506021316 79 131 0.0 2.0 0.00 0.00 0.00 80 1005.0
20260506020320 79 248 1.0 6.0 0.00 0.00 0.00 79 1005.1
20260506020314 79 168 0.0 6.0 0.00 0.00 0.00 80 1005.3
20260506015314 79 117 1.0 7.0 0.00 0.00 0.00 79 1005.0
20260506014812 79 131 1.0 7.0 0.00 0.00 0.00 79 1004.8
20260506014312 79 113 1.0 7.0 0.00 0.00 0.00 79 1004.8
20260506013813 79 113 1.0 8.0 0.00 0.00 0.00 79 1004.8
20260506013312 79 288 1.0 8.0 0.00 0.00 0.00 79 1004.8
20260506012813 80 148 2.0 8.0 0.00 0.00 0.00 78 1004.7
20260506012312 80 131 2.0 8.0 0.00 0.00 0.00 78 1004.4
20260506011812 80 121 2.0 6.0 0.00 0.00 0.00 78 1004.4
20260506011316 80 123 1.0 5.0 0.00 0.00 0.00 77 1004.5
20260506011310 80 131 2.0 6.0 0.00 0.00 0.00 77 1004.6
20260506010308 80 98 1.0 5.0 0.00 0.00 0.00 77 1004.5
20260506005810 80 131 1.0 6.0 0.00 0.00 0.00 77 1004.6
20260506005310 80 114 1.0 6.0 0.00 0.00 0.00 77 1004.6
20260506004809 81 132 1.0 4.0 0.00 0.00 0.00 76 1004.4
20260506004309 81 115 0.0 8.0 0.00 0.00 0.00 76 1004.5
20260506003814 81 129 2.0 8.0 0.00 0.00 0.00 75 1004.3
20260506003809 81 105 0.0 8.0 0.00 0.00 0.00 76 1004.5
20260506002809 81 148 3.0 8.0 0.00 0.00 0.00 75 1004.3
20260506002313 82 82 1.0 5.0 0.00 0.00 0.00 75 1004.1
20260506002309 81 121 2.0 6.0 0.00 0.00 0.00 75 1004.2
20260506001309 82 200 1.0 10.0 0.00 0.00 0.00 75 1004.2
20260506000806 82 110 2.0 10.0 0.00 0.00 0.00 75 1004.4
20260506000312 82 137 3.0 11.0 0.00 0.00 0.00 74 1004.2
20260506000306 82 207 2.0 10.0 0.00 0.00 0.00 74 1004.3
20260505235802 82 252 2.0 11.0 0.00 0.00 0.00 74 1004.2
20260505234802 82 214 4.0 11.0 0.00 0.00 0.00 74 1004.4
20260505234307 83 148 4.0 11.0 0.00 0.00 0.00 73 1004.3
20260505234302 82 198 4.0 11.0 0.00 0.00 0.00 73 1004.2
20260505233306 83 218 4.0 10.0 0.00 0.00 0.00 72 1004.2
20260505233300 83 91 4.0 10.0 0.00 0.00 0.00 73 1004.3
20260505232301 83 281 4.0 10.0 0.00 0.00 0.00 72 1004.1
20260505231802 83 169 4.0 10.0 0.00 0.00 0.00 72 1004.2
20260505231301 84 201 3.0 10.0 0.00 0.00 0.00 71 1004.2
20260505230801 84 250 3.0 9.0 0.00 0.00 0.00 71 1004.0
20260505230302 84 215 3.0 9.0 0.00 0.00 0.00 71 1004.0
20260505225802 84 264 3.0 11.0 0.00 0.00 0.00 71 1004.0
20260505225305 84 134 4.0 11.0 0.00 0.00 0.00 71 1004.0
20260505224802 85 216 5.0 11.0 0.00 0.00 0.00 70 1003.9
20260505224301 85 264 4.0 11.0 0.00 0.00 0.00 70 1004.0
20260505223801 85 191 4.0 10.0 0.00 0.00 0.00 70 1004.1
20260505223301 85 251 5.0 13.0 0.00 0.00 0.00 70 1004.1
20260505222802 84 191 5.0 13.0 0.00 0.00 0.00 70 1003.8
20260505222301 85 109 5.0 15.0 0.00 0.00 0.00 69 1003.7
20260505221758 85 191 5.0 15.0 0.00 0.00 0.00 69 1003.8
20260505221305 85 207 4.0 15.0 0.00 0.00 0.00 68 1003.9
20260505221300 85 224 5.0 15.0 0.00 0.00 0.00 70 1003.8
20260505220258 86 231 4.0 11.0 0.00 0.00 0.00 68 1003.6
20260505215803 86 140 5.0 13.0 0.00 0.00 0.00 68 1003.9
20260505215758 86 207 5.0 13.0 0.00 0.00 0.00 68 1003.7
20260505215257 86 193 5.0 13.0 0.00 0.00 0.00 68 1003.8
20260505214254 86 162 4.0 13.0 0.00 0.00 0.00 67 1003.9
20260505213910 86 92 4.0 12.0 0.00 0.00 0.00 67 1004.1
20260505213758 86 160 4.0 12.0 0.00 0.00 0.00 68 1004.0
20260505213753 86 116 3.0 11.0 0.00 0.00 0.00 68 1004.0
20260505212248 86 206 5.0 14.0 0.00 0.00 0.00 69 1004.2
20260505211749 86 182 5.0 14.0 0.00 0.00 0.00 68 1004.2
20260505211253 85 118 5.0 12.0 0.00 0.00 0.00 67 1004.1
20260505211249 86 234 5.0 13.0 0.00 0.00 0.00 68 1004.0
20260505210908 85 187 6.0 12.0 0.00 0.00 0.00 69 1004.2
20260505205754 85 169 5.0 15.0 0.00 0.00 0.00 68 1004.4
20260505205749 85 242 6.0 12.0 0.00 0.00 0.00 68 1004.3